Retour au catalogue

STARLINK-35510

ActifCommunicationsVLEO
NORAD 66397·PAYLOAD·🇺🇸 United States

Lancé Nov 8, 2025 depuis Cape Canaveral Space Force Station

Loading…

Prochains Passages (prochaines 24 heures)

TLE

FraisSource: CelesTrak SupGP

Époque: Sep 14, 2026, 22:28 UTC

1 66397C 25257T   26257.93659722  .00026111  00000+0  77179-3 0  2578
2 66397  53.1581  55.3626 0001135  81.8535 330.1106 15.34363859    15

Suivez STARLINK-35510 en temps réel avec AllMySat

Download on the App Store